Tracking 32941 objects as of 15-Jan-2026
HD Live streaming from Space Station
objects crossing your sky now

YAOGAN-36 02C

Track YAOGAN-36 02C now!
10-day predictions


NORAD ID: 54045
Int'l Code: 2022-133D
Perigee: 451.2 km
Apogee: 470.3 km
Inclination: 35.0 °
Period: 93.7 minutes
Semi major axis: 6831 km
RCS: Unknown
Launch date: October 14, 2022
Source: People's Republic of China (PRC)
Launch site: Xichang Space Center, China (XSC)
Your satellite tracking list
Your tracking list is empty




NASA's NSSDC Master Catalog

Two Line Element Set (TLE):
1 54045U 22133D   26015.18346122  .00015967  00000-0  42156-3 0  9999
2 54045  34.9935 345.9967 0013959 236.4861 123.4524 15.37476306181578
Source of the keplerian elements: AFSPC